Find Starlink 34602

NORAD ID: 65333 Int'l Des: 2025-189 Owner: SPXS Country: US Constellation: starlink operational
LEOCIRCULAR

Live Position

Loading 3D Globe...

About Starlink 34602

Description loading...

Upcoming Passes

Passes for default location (London). Set your location on the main map for personalized predictions.

Altitude History

Loading altitude history...

Two-Line Element Set

1 65333U 25189L 26107.18627877 .00021924 00000-0 74968-3 0 9992
2 65333 53.1611 27.7197 0001273 82.2293 277.8852 15.30220900 37002
Epoch: Apr 17, 2026 • Age: 9 hours

Current Status

Altitude 477.5 km
Velocity 7.63 km/s
Sub-Earth Point -7.50°S, 169.02°E
Launch Date Aug 27, 2025
Age 0.6 years
Type internet

Technical Details

Classification Payload
Mass 575.00 kg
Dry Mass 530.00 kg
Total Mass 575.00 kg
Length 0.30 m
Diameter 4.10 m
Span 29.00 m
Shape Box + pan
Manufacturer SPXS
Bus Type Starlink V2MO
Phase Status In Orbit
Owner/State SPXS/US

Most Searched